STARLINK-4462, 53781

Orbit data source: Space-Track

STARLINK-4462, 53781 is a payload satellite owned by SpaceX/Seattle (US) in LEO that was launched on Sun, 11 Sep 2022 UTC via an FALCON 9 launch vehicle from the Air Force Eastern Test Range (AFETR). Payload-class satellites include a variety of spacecraft equipped with specific instruments for various scientific and technological missions. These include communications satellites like Starlink; space stations such as the ISS; scientific satellites like the Hubble; Earth observation satellites from companies like Planet Labs, Umbra, and HawkEye 360; GPS; miniature CubeSats for education and research; and military/defense satellites.

Loading next visibility...
Identifier
53781, 2022-111J
Orbit
LEO
Country
Flag of USUS
Related business
Manufacturer
SpaceX/Seattle
Mission
Operational Commercial Communications
Bus & Motor
STARLINK, Unknown motor
Mass
305 kg wet, ~290 kg dry
Launch date (UTC)
2022-09-11 (3 years ago)
Launch vehicle
FALCON 9
Launch site
Air Force Eastern Test Range (AFETR)
Object type
Payload
Rocket body
Debris
Shape & HBR
Box + 1 Pan, 10.1 m
Radar Cross Section
13.562 m², Large (>1 m²)

Expand to show TLE details & history
Last TLE update: 22 hours ago

TLE from 22 hours ago
0 STARLINK-4462
1 53781U 22111J   25286.08993639 -.00002621  00000-0 -14660-3 0  9994
2 53781  53.2165 216.7212 0001438  89.8705 270.2452 15.08853644171412
Epoch: 2025-10-13T02:09Z
TLE epoch observation values (Epoch: 2025-10-13T02:09:30.504Z)
Latitude
Longitude
162.44639°
Altitude
540.595 km
Speed
7.593 km/s
True Right ascension
14h 26m 53s
True Declination
0° 00' 00"
Sunlit
Object was in daylight at epoch
Visualization orbit readout
Latitude
Unknown
Longitude
Unknown
Altitude
Unknown
Speed
Unknown
Apparent Right ascension
Unknown
Apparent Declination
Unknown
Sunlit
N/A
Visualization observer readout
Local Sidereal Time
18:50:41
Azimuth
Unknown
Elevation
Unknown
Doppler factor
Unknown
Orbital elements
Apogee altitude
540.942 km
Perigee altitude
538.952 km
Semi-major axis
6,918.084 km
Eccentricity
0.00014
Inclination
53.2165°
RAAN
216.7212°
Arg. of periapsis
89.8705°
True anomaly
270.22872°
Mean anomaly
270.2452°
Eccentric anomaly
270.23696°
Mean motion
3.77194 °/min
Orbital period
95.44 mins
BSTAR
-0.0001466
Loading maneuver chart data...
Computing Atmospheric mass density...
Loading historical data...
Loading historical data...
Loading historical data...
Loading historical data...
Loading historical data...
Loading historical data...
Loading historical data...

Documentation

Showing up to 5 results
|